Regional Weather Roundup
Issued by NWS

Home | Current Version | Previous Version | Graphics & Text | Print | Product List | Glossary On
Versions: 1 2 3 4 5 6 7 8 9 10 11 12 13 14 15 16 17 18 19 20 21 22 23 24 25 26 27
000
ASUS45 KSLC 120110
RWRUT

UTAH REGIONAL WEATHER ROUNDUP
NATIONAL WEATHER SERVICE SALT LAKE CITY UT
600 PM MST MON DEC 11 2017

UTZ001>011-023>025-120200-

NORTHERN UTAH

CITY           SKY/WX    TMP DP  RH WIND       PRES   REMARKS
BRIGHAM CITY   MOCLDY    28  22  81 CALM      30.57S
HILL AFB       CLEAR     26  24  94 SW5       30.54S HAZE    WCI  20
LOGAN          MOCLDY    23  18  81 CALM      30.57R
OGDEN          MOCLDY    26  23  88 SW3       30.55S FOG
SALT LAKE CITY FOG       27  26  96 NW3       30.57S VSB 1/4
TOOELE VALLEY  CLOUDY    27  27 100 CALM      30.58S FOG
WENDOVER       CLOUDY    25  18  74 E3        30.58R
HEBER CITY       N/A     25  14  63 E5        30.49R WCI  19
WEST JORDAN    CLOUDY    23  23 100 NW5       30.56S VSB 1/4 WCI  17

$$

UTZ011>015-024>027-120200-

CENTRAL/NORTHEAST UTAH

CITY           SKY/WX    TMP DP  RH WIND       PRES   REMARKS
PROVO AIRPORT  MOCLDY    29  20  69 NW3       30.55R
MOAB/CANYONLAN MOCLDY    33   3  28 NW9       30.46R WCI  25
DELTA          CLOUDY    30  14  51 S5        30.54R WCI  25
PRICE          MOCLDY    32  -2  23 NE6       30.46R WCI  26
ROOSEVELT      CLOUDY    28   7  40 W6        30.52R WCI  22
VERNAL         CLOUDY    29   9  43 NW6       30.49S WCI  23

$$

UTZ013>016-019>022-027-120200-

SOUTHERN UTAH

CITY           SKY/WX    TMP DP  RH WIND       PRES   REMARKS
BRYCE CANYON   MOCLDY    21 -13  21 NW3       30.49S
CEDAR CITY     MOCLDY    30  10  43 S5        30.48R WCI  25
MILFORD        CLOUDY    27  13  55 N5        30.51R WCI  22
ST GEORGE      MOCLDY    51   6  16 CALM      30.38S
HANKSVILLE     MOCLDY    39   5  24 N5        30.48S
BLANDING         N/A     33   0  24 CALM      30.48S

$$

REGIONAL REPORTS     COLORADO/ARIZONA

CITY           SKY/WX    TMP DP  RH WIND       PRES   REMARKS
CRAIG, CO      CLOUDY    21  15  78 CALM      30.50R
GRAND JUNCTION CLOUDY    33   0  24 CALM      30.45R
RIFLE, CO      CLOUDY    37   2  22 VRB3      30.47R
MONTROSE, CO   CLOUDY    34   1  24 S6        30.48R WCI  29
CORTEZ, CO     CLOUDY    25   0  33 E6        30.41R WCI  18
COLORADO CITY    N/A     37  -4  17 NE7       30.43R WCI  32
PAGE, AZ       PTCLDY    39  16  39 CALM      30.43S
GRAND CANYON   PTCLDY    32 -20  10 CALM      30.45R
KINGMAN, AZ    PTCLDY    42  -1  16 E7        30.32R
FLAGSTAFF, AZ  MOCLDY    34  -9  15 CALM      30.44R

$$

REGIONAL REPORTS    NEVADA/IDAHO/WYOMING

CITY           SKY/WX    TMP DP  RH WIND       PRES   REMARKS
LAS VEGAS, NV  PTCLDY    60   3  10 S5        30.31R
ELY, NY        MOCLDY    23  -6  28 S8        30.50R WCI  14
ELKO, NV       CLOUDY    29  21  72 CALM      30.51R
POCATELLO, ID  CLOUDY    23  18  81 CALM      30.55R
BURLEY, ID     CLOUDY    30  23  75 W5        30.54R WCI  25
FORT BRIDGER,    N/A     41  10  28 SW8       30.53R
EVANSTON, WY   CLOUDY    43  13  29 S3        30.52R
ROCK SPRINGS,  CLOUDY    41   3  20 NE5       30.47R

$$




USA.gov is the U.S. government's official web portal to all federal, state and local government web resources and services.